Home   Weather   Lagos   Past weeks
Flag for Nigeria

Past Weather in Lagos, Nigeria — Yesterday and Last 2 Weeks

Now
79 °F

Passing clouds.


Feels Like: 82 °F
Forecast: 91 / 75 °F
Wind: 3 mph from North

Location: Lagos / Ikeja

Current Time: May 27, 2019 at 10:59:06 am

Latest Report: May 27, 2019 at 10:00 am


Visibility: N/A

Pressure: 29.92 "Hg

Humidity: 89%

Dew Point: 75 °F

Location of LagosLocation

Past Weather in Lagos — Graph

°F

Lagos Temperature Yesterday

Maximum temperature yesterday: 84 °F (at 10:00 am)
Minimum temperature yesterday: 77 °F (at 8:00 pm)
Average temperature yesterday: 80 °F

High & Low Weather Summary for the Past Weeks

 TemperatureHumidityPressure
High95 °F (May 17, 2:00 pm)100% (May 13, 8:00 am)30.04 "Hg (May 13, 8:00 am)
Low73 °F (May 20, 10:00 am)56% (May 17, 2:00 pm)29.80 "Hg (May 12, 5:00 pm)
Average82 °F85%29.90 "Hg
* Reported May 12 10:00 am — May 27 10:00 am, Lagos. Weather by CustomWeather, © 2019

Note: Actual official high and low records may vary slightly from our data, if they occured in-between our weather recording intervals... More about our weather records

Advertising

Lagos Weather History for the Previous 24 Hours

Scroll right to see more
 ConditionsComfort  
Time TempWeatherWind HumidityBarometerVisibility
10:00 am
Mon, May 27
79 °FPassing clouds.3 mph89%29.92 "HgN/A
9:00 am77 °FPassing clouds.2 mph89%29.92 "HgN/A
8:00 am75 °FPassing clouds.2 mph94%29.89 "HgN/A
7:00 am75 °FPassing clouds.2 mph94%29.89 "HgN/A
6:00 am75 °FThunderstorms. Passing clouds.2 mph94%29.92 "Hg5 mi
5:00 am75 °FThunderstorms. Passing clouds.2 mph94%29.92 "Hg5 mi
4:00 am75 °FThunderstorms. Passing clouds.9 mph94%29.92 "Hg5 mi
3:00 am75 °FThunderstorms. Passing clouds.15 mph94%29.95 "Hg5 mi
2:00 am77 °FThunderstorms. Passing clouds.18 mph94%29.95 "Hg3 mi
1:00 am77 °FThunderstorms. Passing clouds.6 mph94%29.95 "HgN/A
12:00 am77 °FThunderstorms. Passing clouds.5 mph94%29.95 "HgN/A
11:00 pm
Sun, May 26
77 °FThunderstorms. Passing clouds.6 mph94%29.95 "HgN/A
10:00 pm77 °FThunderstorms. Passing clouds.7 mph94%29.92 "HgN/A
9:00 pm77 °FThunderstorms. Passing clouds.8 mph94%29.92 "HgN/A
8:00 pm77 °FThunderstorms. Passing clouds.2 mph100%29.92 "Hg5 mi
7:00 pm79 °FThunderstorms. Passing clouds.2 mph94%29.86 "Hg5 mi
6:00 pm79 °FThunderstorms. Scattered clouds.2 mph94%29.86 "Hg5 mi
5:00 pm79 °FThunderstorms. Partly sunny.5 mph94%29.86 "Hg5 mi
4:00 pm81 °FThunderstorms. Partly sunny.7 mph94%29.89 "HgN/A
10:00 am84 °FPassing clouds.6 mph84%29.95 "HgN/A
Weather by CustomWeather, © 2019

See weather overview